OpenBCM V2.0.3 (Linux)

Packet Radio Mailbox

IZ3LSV

[San Dona' di P. JN]

 Login: GUEST





  
I0OJJ  > AMSAT    06.06.26 02:31l 329 Lines 15514 Bytes #999 (0) @ WW
BID : 23X_IR0EQ
Read: GUEST
Subj: 2Line Orbital Elements
Path: IZ3LSV<I0OJJ<IR0EQ
Sent: 260606/0027z @:IR0EQ.ITA.EU [Rome] $:23X_IR0EQ

>From i0ojj%ir0eq.ita.eu@i0ojj.ampr.org Sat Jun  6 02:31:25 2026
Received: from i0ojj.ampr.org by i0ojj.ampr.org (JNOS2.0q.1) with SMTP
	id AA17061828 ; Sat, 06 Jun 2026 02:31:25 +0200
Message-Id: <23X_IR0EQ@i0ojj.bbs>
>From: i0ojj@ir0eq.ita.eu
X-JNOS-User-Port: Telnet   (i0ojj @ 44.27.18.9)  ->   Sending message

>From i0ojj@rgate.ampr.org Sat Jun  6 02:27:25 2026
Received: from rgate.ampr.org by rgate.ampr.org (JNOS2.0q.1) with SMTP
	id AA2733 ; Sat, 06 Jun 2026 02:27:25 +0200
Received: by rgate.ampr.org with SMTP
	id AA2730 ; Sat, 06 Jun 2026 02:27:02 +0200
Message-Id: <2731@rgate.ampr.org>
>From: i0ojj@rgate.ampr.org

SB KEPS @ AMSAT  $ORB26157.1
2Line Orbital Elements 26157.AMSAT

QST de W1STR

AMSAT Orbital Elements for Amateur Satellites in TLE Format
>From Orbital Analysis Office
New England Sci-Tech STEM Education Center
Natick MA June 06, 2026
To all radio amateurs


These element sets describe the orbits of various satellites 
in use by the amateur radio community. For details see:
www.amsat.org/keplerian-elements-formats/

A daily update of element sets is available at:
www.amsat.org/tle/daily-bulletin.txt
or without bulletin text:
www.amsat.org/tle/dailytle.txt


AO-07
1 07530U 74089B   26156.25337361 -.00000049  00000-0 -14506-4 0  9998
2 07530 101.9901 169.3754 0012431 152.3188 270.3033 12.53697882359020
UO-11
1 14781U 84021B   26156.81082956  .00001310  00000-0  13903-3 0  9999
2 14781  97.8051 122.5133 0006616 212.1931 147.8884 14.90755044255436
AO-27
1 22825U 93061C   26156.46242272  .00000116  00000-0  61062-4 0  9994
2 22825  98.6882 223.8798 0009296 130.1900 230.0097 14.30939099705326
FO-29
1 24278U 96046B   26156.48148801 -.00000028  00000-0  47757-5 0  9998
2 24278  98.5250   6.9568 0350683 126.7306 236.6586 13.53273625471586
GO-32
1 25397U 98043D   26156.47428677  .00000072  00000-0  51302-4 0  9999
2 25397  99.0065 148.9377 0000406 200.1436 159.9726 14.24426083449664
ISS
1 25544U 98067A   26156.77317084  .00009220  00000-0  17151-3 0  9998
2 25544  51.6332 356.5983 0007059 137.5864 222.5671 15.49621928569985
NO-44
1 26931U 01043C   26156.77450164  .00000153  00000-0  87929-4 0  9991
2 26931  67.0513 273.7893 0006115 264.0839  95.9566 14.31951978288814
SO-50
1 27607U 02058C   26156.35454122  .00001035  00000-0  13927-3 0  9997
2 27607  64.5503 165.5947 0075495 264.6340  94.6150 14.83020070262706
CO-55
1 27844U 03031E   26154.54951729  .00000336  00000-0  16425-3 0  9995
2 27844  98.6736 163.2800 0008691 219.4250 140.6297 14.24327019189733
RS-22
1 27939U 03042A   26156.88015929  .00000776  00000-0  12780-3 0  9992
2 27939  98.3468 340.9197 0010309 310.0963 157.2672 14.73446053213887
CO-65
1 32785U 08021C   26156.71379230  .00005593  00000-0  35426-3 0  9993
2 32785  97.8271 137.8952 0010521  72.3212 287.9164 15.09336767983466
CO-66
1 32791U 08021J   26156.44822116  .00019038  00000-0  61158-3 0  9996
2 32791  97.7518 153.7894 0002814  37.2994 322.8442 15.32333038985498
RS-30
1 32953U 08025A   26156.83153580  .00000041  00000-0  22579-3 0  9993
2 32953  82.5044   2.5051 0019361 339.3456  20.6839 12.43178928818283
SRMSAT
1 37841U 11058D   26156.64627256  .00000376  00000-0  60191-4 0  9993
2 37841  19.9704 129.3229 0011943  77.5338  79.4380 14.11573181756184
ZACUBE-1
1 39417U 13066B   26156.67567771  .00004480  00000-0  34902-3 0  9993
2 39417  97.8105 118.9505 0039931 288.3391  71.3492 15.01111253679002
Delfi-N3xt
1 39428U 13066N   26156.53206836  .00006798  00000-0  59568-3 0  9991
2 39428  97.8345  76.8551 0072711 244.9405 114.4256 14.94963830672883
GOMX-1
1 39430U 13066Q   26156.81416750  .00002725  00000-0  41173-3 0  9992
2 39430  97.6488 357.9941 0130044 113.6456 247.8464 14.69417044668240
LO-74
1 39440U 13066AA  26156.80918560  .00005560  00000-0  51354-3 0  9990
2 39440  97.8908 105.7402 0059435  65.9901 294.7524 14.93668030675290
AO-73
1 39444U 13066AE  26156.72056139  .00007673  00000-0  47823-3 0  9993
2 39444  97.8279 127.9286 0034657 241.2535 118.5210 15.09347901677939
DTUSAT-2
1 40030U 14033W   26156.48094786  .00008046  00000-0  43624-3 0  9994
2 40030  98.0866 153.4663 0006194 275.2568  84.7955 15.14861222650910
LILACSAT-2
1 40908U 15049K   26156.40311003  .00016866  00000-0  29144-3 0  9992
2 40908  97.4655 192.7995 0005343 302.5632  57.5104 15.51038852593925
Horyu-4
1 41340U 16012D   26156.33517023  .00259558  00000-0  90645-3 0  9997
2 41340  30.9854 165.5202 0002385 199.5119 160.5450 15.87524639568928
Lapan A3
1 41603U 16040E   26156.83400244  .00003824  00000-0  12197-3 0  9990
2 41603  97.1490 153.3537 0011955  62.0822 298.1630 15.33031155553070
CAS-2T
1 41847U 16066G   26156.46601537  .00001782  00000-0  25737-3 0  9990
2 41847  98.3816 232.3358 0342355 164.9515 196.2178 14.44654069503106
TechnoSat
1 42829U 17042E   26156.41393751  .00003013  00000-0  21639-3 0  9993
2 42829  97.4274 314.5222 0018976 130.9883 229.2989 15.04883648484938
AO-91
1 43017U 17073E   26156.36694125  .00009261  00000-0  40440-3 0  9992
2 43017  97.4713  23.8246 0151376  10.1794 350.2442 15.12507922463601
S-Net D
1 43186U 18014G   26156.45389159  .00005227  00000-0  27103-3 0  9992
2 43186  97.5368  61.3183 0009843  65.5123 294.7136 15.16557264456986
S-Net B
1 43187U 18014H   26156.53109852  .00005619  00000-0  29131-3 0  9990
2 43187  97.5375  61.3812 0010387  60.8420 299.3851 15.16528735456994
S-Net A
1 43188U 18014J   26155.72704580  .00005834  00000-0  30204-3 0  9992
2 43188  97.5386  60.7888 0010387  63.5981 296.6317 15.16558138456879
S-Net C
1 43189U 18014K   26156.27098594  .00005367  00000-0  27841-3 0  9999
2 43189  97.5401  61.4022 0011517  55.3016 304.9300 15.16516677455506
Ten-Koh
1 43677U 18084G   26156.47246840  .00002969  00000-0  22603-3 0  9995
2 43677  98.0779 348.3412 0010256 152.2333 207.9440 15.02891117414401
PO-101
1 43678U 18084H   26156.83275079  .00003032  00000-0  24619-3 0  9993
2 43678  98.1156 352.5494 0011826 208.0097 152.0491 15.00397499414510
QO-100
1 43700U 18090A   26156.63957595  .00000157  00000-0  00000+0 0  9993
2 43700   0.0169   6.1871 0001956 102.4053  41.5169  1.00273110 27562
MinXSS-2
1 43758U 18099A   26156.63922009  .00034773  00000-0  70951-3 0  9994
2 43758  97.4535 232.5923 0006038 305.5163  54.5522 15.46106389412348
AO-95
1 43770U 18099N   26156.08244416  .00010962  00000-0  42280-3 0  9994
2 43770  97.4389 216.3757 0009283  40.1659 320.0264 15.26442922411371
SNUSat 2
1 43782U 18099AA  26156.43152265  .00008637  00000-0  38460-3 0  9997
2 43782  97.4061 209.9971 0009492 345.8710  14.2259 15.21654849411242
SnugLite
1 43784U 18099AC  26156.41419970  .00011108  00000-0  42285-3 0  9993
2 43784  97.3870 210.8120 0002095   6.4712 353.6554 15.26909524411529
ITASat 1
1 43786U 18099AE  26156.36171225  .00007415  00000-0  35770-3 0  9994
2 43786  97.4030 208.1104 0013338  40.5492 319.6733 15.18900130411119
EAGLET 1
1 43790U 18099AJ  26156.41212689  .00004665  00000-0  26859-3 0  9997
2 43790  97.4234 206.3930 0011853  34.2261 325.9732 15.12847196410553
ESEO
1 43792U 18099AL  26156.33954318  .00001269  00000-0  95419-4 0  9998
2 43792  97.3968 194.2353 0012558  21.0449 339.1292 15.04203258410023
JO-97
1 43803U 18099AX  26156.08899900  .00015845  00000-0  49499-3 0  9999
2 43803  97.4134 218.8851 0004294 322.9431  37.1514 15.33253592411773
Suomi 100
1 43804U 18099AY  26156.42077123  .00011165  00000-0  40909-3 0  9991
2 43804  97.4187 216.8601 0008764 328.6803  31.3913 15.28141688411624
ISAT
1 43879U 18111D   26156.32765132  .00079311  00000-0  86421-3 0  9997
2 43879  97.5892  90.6556 0003044  48.0088 312.1428 15.63146729409315
UWE-4
1 43880U 18111E   26156.04483588  .00034971  00000-0  73225-3 0  9991
2 43880  97.5859  83.8833 0007898  27.7618 332.4050 15.45332944408902
Sparrow
1 43881U 18111F   26156.55157022  .00140604  00000-0  11034-2 0  9999
2 43881  97.6124  96.3156 0005153  98.1023 262.0824 15.71094721409545
Prox-1
1 44339U 19036A   26156.40826777  .00011221  00000-0  10974-2 0  9993
2 44339  23.9935 192.9204 0005367 253.7841 106.2067 14.90320876371715
Taurus 1
1 44530U 19059C   26156.82326586  .00006352  00000-0  10204-2 0  9995
2 44530  98.6415 320.9476 0008086 356.0070   4.1070 14.71972838356977
TO-108
1 44881U 19093C   26156.87078661  .00000331  00000-0  43349-4 0  9994
2 44881  97.7530 229.3781 0014730 120.5462 239.7209 14.86497672349737
RS-44
1 44909U 19096E   26156.51249477  .00000011  00000-0 -45461-5 0  9998
2 44909  82.5218 347.4646 0217652 171.4058 189.0869 12.79748592300858
SALSAT
1 46495U 20068K   26156.50196862  .00008465  00000-0  29742-3 0  9991
2 46495  97.8853 158.8572 0009210 354.5258   5.5879 15.29623212313576
CSS (TIANHE-1)
1 48274U 21035A   26156.71373382  .00024377  00000-0  29227-3 0  9998
2 48274  41.4692  31.8018 0009364 349.1605  10.9031 15.60304132291375
CUTE
1 49263U 21088D   26155.73642168  .00375974  53981-4  13201-2 0  9993
2 49263  97.4168 253.8627 0007156 259.5402 100.5064 15.89140545260578
TeikyoSat 4
1 49396U 21102B   26156.05595144  .00001564  00000-0  10136-3 0  9990
2 49396  97.3670 186.0110 0011381 343.0074  17.0773 15.09463286250890
Z-Sat
1 49399U 21102E   26156.86170833  .00002732  00000-0  13664-3 0  9993
2 49399  97.3330 192.5290 0014844 289.1213  70.8414 15.18173467251720
KOSEN 1
1 49402U 21102H   26156.08213306  .00007801  00000-0  29954-3 0  9996
2 49402  97.3191 198.4757 0012175 246.8542 113.1415 15.26660748252177
HO-113
1 50466U 21131B   26156.87808179  .00000298  00000-0  10563-3 0  9994
2 50466  98.4977 249.3291 0005092 122.4760 237.6922 14.41346043233486
SNUGLITE 2
1 52899U 22065F   26156.34645692  .00001089  00000-0  21540-3 0  9990
2 52899  98.2190 301.1992 0008604  66.1364 294.0739 14.64324999209267
